K0WOI Weather Reports


Display with metric or nautical units.
time (UTC)temp
F
wind
direction
speed
MPH
gust
MPH
rain 1hr
in
rain 24hr
in
rain mn
in
humidity
%
barometer
mb
20260509185606 69 287 1.0 2.0 0.00 0.00 0.00 46 1008.3
20260509185102 69 313 5.0 7.0 0.00 0.00 0.00 44 1008.2
20260509184601 69 305 2.0 2.0 0.00 0.00 0.00 45 1008.3
20260509184057 69 309 3.0 6.0 0.00 0.00 0.00 43 1008.1
20260509183552 69 324 5.0 7.0 0.00 0.00 0.00 42 1008.2
20260509183048 68 307 3.0 3.0 0.00 0.00 0.00 42 1008.1
20260509182545 69 294 4.0 5.0 0.00 0.00 0.00 41 1007.7
20260509182042 69 317 1.0 1.0 0.00 0.00 0.00 40 1007.8
20260509181540 69 272 1.0 2.0 0.00 0.00 0.00 43 1007.9
20260509181037 69 245 3.0 5.0 0.00 0.00 0.00 37 1007.9
20260509180532 70 288 2.0 2.0 0.00 0.00 0.00 35 1007.7
20260509180030 70 246 3.0 6.0 0.00 0.00 0.00 37 1007.8
20260509175526 69 326 1.0 1.0 0.00 0.00 0.00 35 1008.0
20260509175023 69 289 2.0 2.0 0.00 0.00 0.00 36 1007.9
20260509174519 69 310 2.0 2.0 0.00 0.00 0.00 35 1008.0
20260509174014 70 328 2.0 2.0 0.00 0.00 0.00 36 1008.0
20260509173509 71 300 1.0 1.0 0.00 0.00 0.00 38 1007.6
20260509173005 73 315 5.0 6.0 0.00 0.00 0.00 31 1007.8
20260509172503 72 241 5.0 6.0 0.00 0.00 0.00 34 1007.7
20260509171958 72 319 2.0 2.0 0.00 0.00 0.00 36 1007.7
20260509171454 72 320 2.0 2.0 0.00 0.00 0.00 32 1007.8
20260509170951 73 224 3.0 3.0 0.00 0.00 0.00 29 1007.3
20260509170446 71 302 1.0 2.0 0.00 0.00 0.00 30 1007.3
20260509165942 71 306 4.0 7.0 0.00 0.00 0.00 29 1007.4
20260509165442 71 301 2.0 2.0 0.00 0.00 0.00 28 1007.3
20260509164937 71 343 4.0 6.0 0.00 0.00 0.00 29 1007.2
20260509164434 72 352 5.0 7.0 0.00 0.00 0.00 29 1007.2
20260509163929 71 293 3.0 5.0 0.00 0.00 0.00 29 1007.6
20260509163427 70 236 8.0 13.0 0.00 0.00 0.00 30 1007.3
20260509162926 69 347 6.0 7.0 0.00 0.00 0.00 30 1007.6
20260509162425 69 292 1.0 1.0 0.00 0.00 0.00 31 1008.0
20260509161921 70 303 4.0 5.0 0.00 0.00 0.00 33 1007.7
20260509161417 70 281 5.0 7.0 0.00 0.00 0.00 30 1007.6
20260509160913 69 311 2.0 2.0 0.00 0.00 0.00 31 1007.7
20260509160408 68 327 1.0 2.0 0.00 0.00 0.00 35 1007.9
20260509155903 68 258 3.0 5.0 0.00 0.00 0.00 33 1007.9
20260509155401 68 228 6.0 7.0 0.00 0.00 0.00 32 1007.7
20260509154857 68 305 3.0 5.0 0.00 0.00 0.00 32 1007.9
20260509154353 68 352 4.0 6.0 0.00 0.00 0.00 33 1007.9
20260509153850 68 264 4.0 6.0 0.00 0.00 0.00 32 1007.7
20260509153347 69 206 8.0 10.0 0.00 0.00 0.00 32 1007.8
20260509152844 68 318 2.0 2.0 0.00 0.00 0.00 32 1007.9
20260509152340 68 299 3.0 3.0 0.00 0.00 0.00 34 1007.8
20260509151838 67 251 2.0 2.0 0.00 0.00 0.00 35 1007.8
20260509151333 67 347 4.0 5.0 0.00 0.00 0.00 32 1007.6
20260509150832 67 325 3.0 3.0 0.00 0.00 0.00 34 1007.8
20260509150329 67 322 2.0 3.0 0.00 0.00 0.00 34 1007.6
20260509145826 67 282 3.0 5.0 0.00 0.00 0.00 33 1007.2
20260509145321 66 305 3.0 3.0 0.00 0.00 0.00 33 1007.7
20260509144818 65 305 4.0 7.0 0.00 0.00 0.00 34 1007.4
20260509144315 66 313 2.0 3.0 0.00 0.00 0.00 36 1007.3
20260509143812 66 342 2.0 2.0 0.00 0.00 0.00 35 1007.1
20260509143309 65 280 3.0 7.0 0.00 0.00 0.00 34 1007.3
20260509142806 65 275 3.0 5.0 0.00 0.00 0.00 35 1007.4
20260509142302 64 300 10.0 13.0 0.00 0.00 0.00 34 1007.6
20260509141757 64 353 5.0 7.0 0.00 0.00 0.00 37 1007.6
20260509141255 64 324 6.0 8.0 0.00 0.00 0.00 37 1007.6
20260509140751 64 351 3.0 3.0 0.00 0.00 0.00 41 1007.4
20260509140248 65 305 1.0 1.0 0.00 0.00 0.00 38 1007.2
20260509135746 65 311 4.0 6.0 0.00 0.00 0.00 37 1007.1
20260509135244 64 269 3.0 3.0 0.00 0.00 0.00 37 1006.4
20260509134740 64 277 2.0 3.0 0.00 0.00 0.00 42 1006.1
20260509134238 63 250 2.0 2.0 0.00 0.00 0.00 44 1006.2
20260509133735 62 276 1.0 2.0 0.00 0.00 0.00 43 1006.3
20260509133231 61 232 4.0 5.0 0.00 0.00 0.00 44 1006.0
20260509132730 60 294 1.0 1.0 0.00 0.00 0.00 48 1006.0
20260509132228 59 286 1.0 2.0 0.00 0.00 0.00 49 1006.0
20260509131725 59 287 1.0 2.0 0.00 0.00 0.00 50 1005.7
20260509131221 57 277 1.0 1.0 0.00 0.00 0.00 52 1005.8
20260509130717 56 286 2.0 2.0 0.00 0.00 0.00 54 1005.9
20260509130213 55 305 1.0 2.0 0.00 0.00 0.00 57 1006.0
20260509125710 54 291 2.0 2.0 0.00 0.00 0.00 57 1005.9
20260509125207 53 320 0.0 1.0 0.00 0.00 0.00 59 1005.9
20260509124703 52 320 0.0 1.0 0.00 0.00 0.00 60 1005.8
20260509124200 51 320 0.0 0.0 0.00 0.00 0.00 62 1005.9
20260509123659 50 320 0.0 0.0 0.00 0.00 0.00 65 1006.1
20260509123155 50 320 0.0 0.0 0.00 0.00 0.00 66 1006.0
20260509122650 49 320 0.0 1.0 0.00 0.00 0.00 66 1005.8
20260509122148 49 320 0.0 1.0 0.00 0.00 0.00 66 1005.7
20260509121644 48 320 0.0 1.0 0.00 0.00 0.00 66 1005.8
20260509121142 48 320 0.0 0.0 0.00 0.00 0.00 67 1005.6
20260509120640 49 320 0.0 1.0 0.00 0.00 0.00 66 1005.5
20260509120138 48 319 1.0 1.0 0.00 0.00 0.00 66 1005.7
20260509115635 48 319 1.0 1.0 0.00 0.00 0.00 67 1005.9
20260509115133 47 319 1.0 1.0 0.00 0.00 0.00 69 1005.5
20260509114631 47 319 1.0 1.0 0.00 0.00 0.00 70 1005.4
20260509114129 47 319 1.0 1.0 0.00 0.00 0.00 72 1005.5
20260509113627 46 319 1.0 1.0 0.00 0.00 0.00 73 1005.3
20260509113124 46 319 0.0 0.0 0.00 0.00 0.00 75 1005.7
20260509112620 45 319 0.0 1.0 0.00 0.00 0.00 77 1005.5
20260509112118 44 319 0.0 0.0 0.00 0.00 0.00 85 1005.5
20260509111615 43 318 0.0 0.0 0.00 0.00 0.00 91 1005.3
20260509111112 42 319 0.0 0.0 0.00 0.00 0.00 91 1005.4
20260509110609 43 319 0.0 0.0 0.00 0.00 0.00 90 1005.1
20260509110106 43 319 0.0 0.0 0.00 0.00 0.00 89 1004.8
20260509105604 43 318 0.0 0.0 0.00 0.00 0.00 90 1005.0
20260509105101 43 319 0.0 0.0 0.00 0.00 0.00 90 1005.1
20260509104558 43 319 0.0 0.0 0.00 0.00 0.00 89 1005.1
20260509104055 42 318 0.0 0.0 0.00 0.00 0.00 91 1005.0
20260509103553 43 319 0.0 0.0 0.00 0.00 0.00 90 1005.1
20260509103051 43 319 0.0 0.0 0.00 0.00 0.00 89 1005.0
20260509102548 43 319 0.0 0.0 0.00 0.00 0.00 90 1005.0
20260509102045 43 319 0.0 0.0 0.00 0.00 0.00 89 1005.0
20260509101541 43 319 0.0 0.0 0.00 0.00 0.00 88 1005.1
20260509101038 43 319 0.0 0.0 0.00 0.00 0.00 87 1005.0
20260509100535 44 319 0.0 0.0 0.00 0.00 0.00 86 1005.0
20260509100033 44 319 0.0 0.0 0.00 0.00 0.00 86 1005.4
20260509095529 45 319 0.0 0.0 0.00 0.00 0.00 85 1005.2
20260509095026 46 319 0.0 0.0 0.00 0.00 0.00 84 1005.3
20260509094522 45 319 1.0 2.0 0.00 0.00 0.00 84 1005.2
20260509094020 44 319 0.0 0.0 0.00 0.00 0.00 90 1005.3
20260509093518 44 319 0.0 0.0 0.00 0.00 0.00 92 1005.3
20260509093015 44 319 0.0 0.0 0.00 0.00 0.00 92 1005.2
20260509092513 45 319 0.0 0.0 0.00 0.00 0.00 91 1005.3
20260509092012 45 319 0.0 0.0 0.00 0.00 0.00 91 1005.3
20260509091508 44 319 0.0 0.0 0.00 0.00 0.00 91 1005.4
20260509091005 45 319 0.0 0.0 0.00 0.00 0.00 91 1005.5
20260509090502 46 319 0.0 0.0 0.00 0.00 0.00 90 1005.5
20260509090000 45 319 0.0 0.0 0.00 0.00 0.00 92 1005.3
20260509085457 45 319 0.0 0.0 0.00 0.00 0.00 91 1005.2
20260509084953 45 319 0.0 0.0 0.00 0.00 0.00 91 1005.2
20260509084450 45 319 0.0 0.0 0.00 0.00 0.00 91 1005.3
20260509083947 46 319 0.0 0.0 0.00 0.00 0.00 91 1005.2
20260509083444 45 319 0.0 0.0 0.00 0.00 0.00 90 1005.3
20260509082941 46 319 0.0 0.0 0.00 0.00 0.00 89 1005.3
20260509082438 46 319 0.0 0.0 0.00 0.00 0.00 88 1005.0
20260509081935 46 319 0.0 0.0 0.00 0.00 0.00 88 1005.4
20260509081432 46 319 0.0 0.0 0.00 0.00 0.00 85 1005.0
20260509080930 47 319 0.0 0.0 0.00 0.00 0.00 84 1005.0
20260509080428 47 319 0.0 0.0 0.00 0.00 0.00 81 1005.3
20260509075926 47 319 0.0 0.0 0.00 0.00 0.00 81 1005.1
20260509075422 48 319 0.0 0.0 0.00 0.00 0.00 83 1004.9
20260509074920 48 319 0.0 0.0 0.00 0.00 0.00 82 1005.2
20260509074417 49 319 0.0 0.0 0.00 0.00 0.00 77 1004.9
20260509073913 49 319 0.0 0.0 0.00 0.00 0.00 76 1005.1
20260509073410 50 319 0.0 0.0 0.00 0.00 0.00 75 1005.3
20260509072906 50 319 0.0 0.0 0.00 0.00 0.00 72 1005.0
20260509072403 50 319 0.0 0.0 0.00 0.00 0.00 72 1005.1
20260509071859 51 319 0.0 0.0 0.00 0.00 0.00 72 1005.1
20260509071357 51 319 0.0 0.0 0.00 0.00 0.00 74 1005.1
20260509070854 51 319 0.0 0.0 0.00 0.00 0.00 74 1005.1
20260509070351 51 319 0.0 0.0 0.00 0.00 0.00 73 1005.1
20260509065847 52 319 0.0 0.0 0.00 0.00 0.00 71 1005.0
20260509065343 53 319 0.0 0.0 0.00 0.00 0.00 67 1005.0
20260509064839 53 319 0.0 0.0 0.00 0.00 0.00 65 1005.2
20260509064337 54 319 0.0 0.0 0.00 0.00 0.00 64 1005.1
20260509063834 55 319 0.0 0.0 0.00 0.00 0.00 62 1005.0
20260509063330 55 319 0.0 0.0 0.00 0.00 0.00 61 1005.3
20260509062828 55 319 1.0 1.0 0.00 0.00 0.00 61 1005.2
20260509062325 56 319 0.0 0.0 0.00 0.00 0.00 60 1005.3
20260509061822 56 319 0.0 1.0 0.00 0.00 0.00 59 1005.4
20260509061320 56 319 0.0 0.0 0.00 0.00 0.00 59 1005.2
20260509060816 56 319 0.0 0.0 0.00 0.00 0.00 58 1005.2
20260509060314 57 319 0.0 0.0 0.00 0.00 0.00 57 1005.3
20260509055809 57 320 1.0 1.0 0.00 0.00 0.00 57 1005.4
20260509055306 57 314 1.0 2.0 0.00 0.00 0.00 57 1005.3
20260509054802 57 292 1.0 2.0 0.00 0.00 0.00 56 1005.2
20260509054258 57 318 2.0 2.0 0.00 0.00 0.00 57 1005.1
20260509053757 57 319 1.0 1.0 0.00 0.00 0.00 56 1004.9
20260509053253 58 319 1.0 2.0 0.00 0.00 0.00 56 1004.7
20260509052751 58 319 0.0 1.0 0.00 0.00 0.00 55 1004.9
20260509052249 58 319 0.0 0.0 0.00 0.00 0.00 55 1005.0
20260509051746 58 319 0.0 0.0 0.00 0.00 0.00 55 1004.7
20260509051244 58 317 2.0 2.0 0.00 0.00 0.00 56 1004.8
20260509050741 58 308 1.0 1.0 0.00 0.00 0.00 58 1004.6
20260509050237 58 306 0.0 0.0 0.00 0.00 0.00 58 1004.7
20260509045735 58 301 1.0 1.0 0.00 0.00 0.00 59 1004.7
20260509045231 59 301 0.0 0.0 0.00 0.00 0.00 58 1004.5
20260509044729 59 298 0.0 0.0 0.00 0.00 0.00 57 1004.5
20260509044226 59 292 0.0 1.0 0.00 0.00 0.00 57 1004.6
20260509043722 60 294 1.0 1.0 0.00 0.00 0.00 57 1004.9
20260509043218 60 294 0.0 0.0 0.00 0.00 0.00 56 1004.8
20260509042715 61 287 0.0 0.0 0.00 0.00 0.00 56 1004.7
20260509042211 61 217 2.0 2.0 0.00 0.00 0.00 55 1004.7
20260509041708 61 283 2.0 2.0 0.00 0.00 0.00 55 1005.1
20260509041205 61 279 2.0 3.0 0.00 0.00 0.00 56 1004.7
20260509040704 61 276 2.0 2.0 0.00 0.00 0.00 56 1004.6
20260509040200 61 251 3.0 3.0 0.00 0.00 0.00 56 1004.6
20260509035657 61 244 1.0 1.0 0.00 0.00 0.00 57 1004.6
20260509035153 61 282 1.0 1.0 0.00 0.00 0.00 57 1004.8
20260509034651 61 305 2.0 2.0 0.00 0.00 0.00 57 1004.4
20260509034148 62 287 1.0 2.0 0.00 0.00 0.00 56 1004.6
20260509033645 62 286 2.0 3.0 0.00 0.00 0.00 55 1004.4
20260509033142 62 302 1.0 1.0 0.00 0.00 0.00 53 1004.3
20260509032639 63 298 1.0 1.0 0.00 0.00 0.00 52 1004.5
20260509032136 63 285 1.0 1.0 0.00 0.00 0.00 50 1004.4
20260509031634 64 323 1.0 1.0 0.00 0.00 0.00 48 1004.3
20260509031131 64 323 1.0 1.0 0.00 0.00 0.00 46 1004.4
20260509030629 64 325 1.0 1.0 0.00 0.00 0.00 45 1004.4
20260509030126 64 330 1.0 1.0 0.00 0.00 0.00 44 1004.2
20260509025622 63 326 0.0 0.0 0.00 0.00 0.00 43 1004.4
20260509025118 63 325 0.0 1.0 0.00 0.00 0.00 43 1004.1
20260509024613 63 322 0.0 0.0 0.00 0.00 0.00 45 1004.2
20260509024110 64 325 0.0 1.0 0.00 0.00 0.00 44 1004.1
20260509023608 66 309 0.0 0.0 0.00 0.00 0.00 49 1004.1
20260509023105 65 329 1.0 1.0 0.00 0.00 0.00 39 1004.0
20260509022601 66 334 2.0 2.0 0.00 0.00 0.00 40 1004.0
20260509022059 66 331 0.0 0.0 0.00 0.00 0.00 39 1003.8
20260509021556 66 331 2.0 2.0 0.00 0.00 0.00 40 1003.7
20260509021053 66 330 2.0 2.0 0.00 0.00 0.00 41 1003.7
20260509020551 66 327 1.0 1.0 0.00 0.00 0.00 42 1003.7
20260509020047 66 327 1.0 1.0 0.00 0.00 0.00 40 1003.8
20260509015547 68 327 0.0 0.0 0.00 0.00 0.00 39 1003.7
20260509015043 68 327 1.0 1.0 0.00 0.00 0.00 37 1003.5
20260509014540 68 326 1.0 1.0 0.00 0.00 0.00 36 1003.6
20260509014036 69 324 1.0 1.0 0.00 0.00 0.00 36 1003.6
20260509013533 70 315 1.0 1.0 0.00 0.00 0.00 34 1003.3
20260509013029 70 307 0.0 0.0 0.00 0.00 0.00 34 1003.3
20260509012526 71 275 1.0 1.0 0.00 0.00 0.00 33 1003.3
20260509012022 71 307 1.0 1.0 0.00 0.00 0.00 33 1003.1
20260509011520 70 265 3.0 3.0 0.00 0.00 0.00 34 1003.3
20260509011018 71 294 1.0 1.0 0.00 0.00 0.00 34 1003.5
20260509010515 71 221 3.0 5.0 0.00 0.00 0.00 32 1003.4
20260509010012 71 280 2.0 2.0 0.00 0.00 0.00 31 1003.6
20260509005510 71 254 3.0 3.0 0.00 0.00 0.00 31 1003.4
20260509005010 71 256 2.0 2.0 0.00 0.00 0.00 30 1003.5
20260509004507 72 287 1.0 1.0 0.00 0.00 0.00 30 1003.4
20260509004004 72 274 1.0 1.0 0.00 0.00 0.00 30 1003.6
20260509003502 73 301 0.0 1.0 0.00 0.00 0.00 30 1003.4
20260509002959 73 260 7.0 9.0 0.00 0.00 0.00 27 1003.7
20260509002457 73 234 3.0 5.0 0.00 0.00 0.00 26 1003.1
20260509001953 74 252 3.0 5.0 0.00 0.00 0.00 25 1003.1
20260509001450 74 198 5.0 6.0 0.00 0.00 0.00 25 1003.3
20260509000947 74 259 3.0 5.0 0.00 0.00 0.00 25 1003.4
20260509000447 73 290 1.0 2.0 0.00 0.00 0.00 26 1003.1
20260508235941 73 237 1.0 1.0 0.00 0.00 0.00 25 1003.3
20260508235439 73 302 1.0 1.0 0.00 0.00 0.00 27 1003.3
20260508234935 73 303 0.0 1.0 0.00 0.00 0.00 26 1003.3
20260508234432 74 296 1.0 1.0 0.00 0.00 0.00 26 1003.4
20260508233929 74 288 2.0 2.0 0.00 0.00 0.00 24 1003.2
20260508233429 74 289 1.0 2.0 0.00 0.00 0.00 25 1003.3
20260508232925 75 298 2.0 2.0 0.00 0.00 0.00 26 1003.3
20260508232422 75 302 4.0 5.0 0.00 0.00 0.00 26 1003.5
20260508231920 76 307 3.0 3.0 0.00 0.00 0.00 24 1003.6
20260508231416 75 298 3.0 6.0 0.00 0.00 0.00 25 1003.6
20260508230914 76 355 4.0 5.0 0.00 0.00 0.00 24 1003.6
20260508230410 75 271 1.0 3.0 0.00 0.00 0.00 25 1003.4
20260508225907 76 248 3.0 3.0 0.00 0.00 0.00 23 1003.6
20260508225404 76 298 1.0 1.0 0.00 0.00 0.00 22 1003.5
20260508224901 76 312 1.0 2.0 0.00 0.00 0.00 25 1003.8
20260508224359 75 313 3.0 3.0 0.00 0.00 0.00 25 1004.1
20260508223856 76 333 2.0 2.0 0.00 0.00 0.00 22 1004.1
20260508223354 74 272 3.0 3.0 0.00 0.00 0.00 25 1004.0
20260508222851 75 307 1.0 2.0 0.00 0.00 0.00 24 1004.1
20260508222348 76 305 2.0 5.0 0.00 0.00 0.00 23 1004.1
20260508221844 75 298 1.0 1.0 0.00 0.00 0.00 24 1004.0
20260508221340 75 314 1.0 1.0 0.00 0.00 0.00 25 1004.1
20260508220836 76 272 2.0 2.0 0.00 0.00 0.00 26 1004.0
20260508220333 74 301 1.0 1.0 0.00 0.00 0.00 25 1004.2
20260508215830 74 321 1.0 1.0 0.00 0.00 0.00 25 1004.4
20260508215326 75 274 2.0 2.0 0.00 0.00 0.00 25 1004.3
20260508214823 77 296 1.0 2.0 0.00 0.00 0.00 26 1004.4
20260508214321 76 307 0.0 1.0 0.00 0.00 0.00 22 1004.3
20260508213817 75 322 1.0 1.0 0.00 0.00 0.00 23 1004.4
20260508213314 75 252 3.0 3.0 0.00 0.00 0.00 23 1004.6
20260508212810 76 285 1.0 1.0 0.00 0.00 0.00 22 1004.7
20260508212306 76 219 5.0 6.0 0.00 0.00 0.00 22 1004.7
20260508211802 75 286 2.0 2.0 0.00 0.00 0.00 24 1004.5
20260508211258 77 313 3.0 3.0 0.00 0.00 0.00 27 1004.7
20260508210756 76 237 3.0 3.0 0.00 0.00 0.00 23 1004.8
20260508210252 74 322 2.0 2.0 0.00 0.00 0.00 24 1004.9
20260508205750 75 220 3.0 5.0 0.00 0.00 0.00 23 1004.9
20260508205246 75 290 1.0 1.0 0.00 0.00 0.00 23 1004.9
20260508204742 75 284 3.0 5.0 0.00 0.00 0.00 22 1004.8
20260508204239 77 275 1.0 2.0 0.00 0.00 0.00 25 1005.1
20260508203735 76 309 2.0 2.0 0.00 0.00 0.00 23 1005.0
20260508203231 74 243 4.0 5.0 0.00 0.00 0.00 25 1005.4
20260508202727 74 317 3.0 5.0 0.00 0.00 0.00 25 1005.1
20260508202224 75 309 2.0 3.0 0.00 0.00 0.00 24 1005.3
20260508201722 76 289 3.0 5.0 0.00 0.00 0.00 23 1005.1
20260508201218 77 320 3.0 3.0 0.00 0.00 0.00 21 1005.4
20260508200715 77 338 3.0 5.0 0.00 0.00 0.00 22 1005.5
20260508200211 76 294 3.0 5.0 0.00 0.00 0.00 24 1005.5
20260508195708 77 250 5.0 6.0 0.00 0.00 0.00 24 1005.5
20260508195204 76 305 5.0 6.0 0.00 0.00 0.00 22 1005.7
20260508194700 76 320 2.0 2.0 0.00 0.00 0.00 22 1005.9
20260508194157 75 303 2.0 2.0 0.00 0.00 0.00 24 1005.7
20260508193655 77 306 5.0 7.0 0.00 0.00 0.00 23 1005.7
20260508193151 76 301 1.0 1.0 0.00 0.00 0.00 28 1005.9
20260508192648 76 329 0.0 1.0 0.00 0.00 0.00 23 1006.0
20260508192145 76 336 3.0 3.0 0.00 0.00 0.00 24 1006.2
20260508191642 75 306 2.0 2.0 0.00 0.00 0.00 24 1006.0
20260508191138 75 334 3.0 3.0 0.00 0.00 0.00 29 1006.4
20260508190636 75 237 5.0 7.0 0.00 0.00 0.00 24 1006.3
20260508190132 75 308 1.0 1.0 0.00 0.00 0.00 24 1006.3